When you browse on this site, cookies collect data to enhance your experience and personalize the content and advertising you see.
Visit our Privacy Policy to learn more. By continuing to use the site, you agree to this use of cookies and data.
  • In Österreich
  • Länderverzeichnis
  • Für 7 Tage
  • Wassertemperatur
  • Satellitenkarten
  • Wetterkarte
  • News
  • Widgets
  • user-avatar
    Anmelden

    Stündliche Wetter Solhan

    Heute, 19 Januar, Samstag

    Zeit Temperatur Niederschläge Wind Luftdruck Luftfeuchtigkeit
    00:00 -13°C° 0 mm 2 m/S 634 mmHg 68%
    01:00 -11°C° 0 mm 1 m/S 634 mmHg 67%
    02:00 -11°C° 0 mm 1 m/S 634 mmHg 66%
    03:00 -12°C° 0 mm 2 m/S 633 mmHg 63%
    04:00 -13°C° 0 mm 2 m/S 633 mmHg 63%
    05:00 -13°C° 0 mm 2 m/S 633 mmHg 63%
    06:00 -11°C° 0 mm 1 m/S 633 mmHg 62%
    07:00 -11°C° 0 mm 1 m/S 633 mmHg 62%
    08:00 -11°C° 0 mm 1 m/S 633 mmHg 61%
    09:00 -10°C° 0 mm 1 m/S 634 mmHg 60%
    10:00 -9°C° 0 mm 1 m/S 634 mmHg 62%
    11:00 -7°C° 0 mm 1 m/S 634 mmHg 64%
    12:00 -4°C° 0 mm 1 m/S 634 mmHg 67%
    13:00 -4°C° 0 mm 1 m/S 634 mmHg 66%
    14:00 -4°C° 0 mm 1 m/S 633 mmHg 65%
    15:00 -5°C° 0 mm 0 m/S 633 mmHg 65%
    16:00 -7°C° 0 mm 1 m/S 633 mmHg 62%
    17:00 -8°C° 0 mm 1 m/S 632 mmHg 59%
    18:00 -10°C° 0 mm 1 m/S 632 mmHg 56%
    19:00 -10°C° 0 mm 1 m/S 632 mmHg 54%
    20:00 -10°C° 0 mm 1 m/S 633 mmHg 51%
    21:00 -10°C° 0 mm 1 m/S 633 mmHg 49%
    22:00 -10°C° 0 mm 1 m/S 633 mmHg 48%
    23:00 -10°C° 0 mm 1 m/S 633 mmHg 47%

    Morgen, 20 Januar, Sonntag

    Zeit Temperatur Niederschläge Wind Luftdruck Luftfeuchtigkeit
    00:00 -10°C° 0 mm 1 m/S 633 mmHg 46%
    01:00 -10°C° 0 mm 1 m/S 633 mmHg 46%
    02:00 -11°C° 0 mm 1 m/S 633 mmHg 46%
    03:00 -11°C° 0 mm 1 m/S 633 mmHg 46%
    04:00 -11°C° 0 mm 1 m/S 633 mmHg 46%
    05:00 -11°C° 0 mm 1 m/S 633 mmHg 47%
    06:00 -11°C° 0 mm 1 m/S 633 mmHg 47%
    07:00 -10°C° 0 mm 1 m/S 634 mmHg 48%
    08:00 -10°C° 0 mm 1 m/S 634 mmHg 49%
    09:00 -10°C° 0 mm 1 m/S 634 mmHg 50%
    10:00 -8°C° 0 mm 1 m/S 634 mmHg 54%
    11:00 -6°C° 0 mm 1 m/S 635 mmHg 59%
    12:00 -4°C° 0 mm 1 m/S 635 mmHg 63%
    13:00 -4°C° 0 mm 1 m/S 634 mmHg 64%
    14:00 -4°C° 0 mm 1 m/S 634 mmHg 64%
    15:00 -4°C° 0 mm 1 m/S 634 mmHg 64%
    16:00 -6°C° 0 mm 1 m/S 633 mmHg 61%
    17:00 -8°C° 0 mm 1 m/S 633 mmHg 59%
    18:00 -9°C° 0 mm 1 m/S 633 mmHg 56%
    19:00 -10°C° 0 mm 1 m/S 633 mmHg 55%
    20:00 -10°C° 0 mm 1 m/S 633 mmHg 54%
    21:00 -10°C° 0 mm 1 m/S 634 mmHg 53%
    22:00 -10°C° 0 mm 1 m/S 634 mmHg 53%
    23:00 -10°C° 0 mm 1 m/S 634 mmHg 54%

    übermorgen, 21 Januar, Montag

    Zeit Temperatur Niederschläge Wind Luftdruck Luftfeuchtigkeit
    00:00 -10°C° 0 mm 1 m/S 634 mmHg 54%
    01:00 -10°C° 0 mm 1 m/S 634 mmHg 56%
    02:00 -10°C° 0 mm 1 m/S 634 mmHg 57%
    03:00 -11°C° 0 mm 1 m/S 634 mmHg 58%
    04:00 -11°C° 0 mm 1 m/S 633 mmHg 59%
    05:00 -13°C° 0 mm 2 m/S 633 mmHg 60%
    06:00 -13°C° 0 mm 2 m/S 633 mmHg 61%
    07:00 -10°C° 0 mm 1 m/S 633 mmHg 63%
    08:00 -10°C° 0 mm 1 m/S 634 mmHg 64%
    09:00 -9°C° 0 mm 1 m/S 634 mmHg 65%
    10:00 -8°C° 0 mm 1 m/S 634 mmHg 67%
    11:00 -6°C° 0 mm 1 m/S 634 mmHg 68%
    12:00 -4°C° 0 mm 1 m/S 634 mmHg 69%
    13:00 -4°C° 0 mm 1 m/S 634 mmHg 70%
    14:00 -3°C° 0 mm 1 m/S 633 mmHg 71%
    15:00 -4°C° 0 mm 0 m/S 633 mmHg 73%
    16:00 -6°C° 0 mm 1 m/S 632 mmHg 72%
    17:00 -7°C° 0 mm 1 m/S 632 mmHg 70%
    18:00 -9°C° 0 mm 1 m/S 632 mmHg 69%
    19:00 -9°C° 0 mm 1 m/S 632 mmHg 69%
    20:00 -9°C° 0 mm 1 m/S 632 mmHg 68%
    21:00 -10°C° 0 mm 1 m/S 632 mmHg 67%
    22:00 -10°C° 0 mm 1 m/S 632 mmHg 67%
    23:00 -10°C° 0 mm 1 m/S 632 mmHg 68%

    22 Januar, Dienstag

    Zeit Temperatur Niederschläge Wind Luftdruck Luftfeuchtigkeit
    00:00 -10°C° 0 mm 1 m/S 632 mmHg 68%
    01:00 -10°C° 0 mm 1 m/S 632 mmHg 69%
    02:00 -10°C° 0 mm 1 m/S 632 mmHg 70%
    03:00 -10°C° 0 mm 1 m/S 632 mmHg 70%
    04:00 -10°C° 0 mm 1 m/S 632 mmHg 71%
    05:00 -10°C° 0 mm 1 m/S 632 mmHg 71%
    06:00 -10°C° 0 mm 1 m/S 632 mmHg 72%
    07:00 -10°C° 0 mm 1 m/S 632 mmHg 73%
    08:00 -9°C° 0 mm 1 m/S 632 mmHg 73%
    09:00 -9°C° 0 mm 1 m/S 633 mmHg 73%
    10:00 -7°C° 0 mm 1 m/S 633 mmHg 74%
    11:00 -6°C° 0 mm 1 m/S 633 mmHg 75%
    12:00 -3°C° 0 mm 1 m/S 633 mmHg 76%
    13:00 -3°C° 0 mm 1 m/S 632 mmHg 77%
    14:00 -3°C° 0 mm 1 m/S 632 mmHg 78%
    15:00 -3°C° 0 mm 1 m/S 632 mmHg 80%
    16:00 -4°C° 0 mm 1 m/S 631 mmHg 79%
    17:00 -7°C° 0 mm 1 m/S 631 mmHg 79%
    18:00 -8°C° 0 mm 1 m/S 631 mmHg 78%
    19:00 -8°C° 0 mm 1 m/S 631 mmHg 78%
    20:00 -9°C° 0 mm 1 m/S 631 mmHg 78%
    21:00 -9°C° 0 mm 1 m/S 631 mmHg 77%
    22:00 -9°C° 0 mm 1 m/S 632 mmHg 78%
    23:00 -9°C° 0 mm 1 m/S 632 mmHg 79%

    23 Januar, Mittwoch

    Zeit Temperatur Niederschläge Wind Luftdruck Luftfeuchtigkeit
    00:00 -9°C° 0 mm 1 m/S 632 mmHg 80%
    01:00 -9°C° 0 mm 1 m/S 632 mmHg 82%
    02:00 -8°C° 0 mm 1 m/S 632 mmHg 83%
    03:00 -8°C° 0 mm 1 m/S 632 mmHg 84%
    04:00 -8°C° 0 mm 1 m/S 632 mmHg 85%
    05:00 -8°C° 0 mm 1 m/S 632 mmHg 86%
    06:00 -8°C° 0 mm 1 m/S 632 mmHg 87%
    07:00 -7°C° 0 mm 1 m/S 632 mmHg 87%
    08:00 -7°C° 0 mm 1 m/S 632 mmHg 87%
    09:00 -6°C° 0 mm 1 m/S 633 mmHg 87%
    10:00 -4°C° 0 mm 1 m/S 633 mmHg 87%
    11:00 -3°C° 0 mm 1 m/S 633 mmHg 86%
    12:00 -2°C° 0 mm 1 m/S 633 mmHg 86%
    13:00 -1°C° 0.1 mm 1 m/S 633 mmHg 87%
    14:00 -1°C° 0.1 mm 1 m/S 633 mmHg 88%
    15:00 -1°C° 0.1 mm 1 m/S 633 mmHg 89%
    16:00 -1°C° 0 mm 1 m/S 633 mmHg 90%
    17:00 -3°C° 0 mm 0 m/S 633 mmHg 91%
    18:00 -4°C° 0 mm 0 m/S 633 mmHg 92%
    19:00 -5°C° 0 mm 0 m/S 633 mmHg 92%
    20:00 -6°C° 0 mm 1 m/S 633 mmHg 92%
    21:00 -7°C° 0 mm 1 m/S 633 mmHg 92%
    22:00 -6°C° 0 mm 1 m/S 633 mmHg 92%
    23:00 -6°C° 0 mm 1 m/S 633 mmHg 91%

    24 Januar, Donnerstag

    Zeit Temperatur Niederschläge Wind Luftdruck Luftfeuchtigkeit
    00:00 -6°C° 0 mm 1 m/S 633 mmHg 90%
    01:00 -6°C° 0 mm 1 m/S 633 mmHg 90%
    02:00 -4°C° 0 mm 1 m/S 633 mmHg 90%
    03:00 -4°C° 0 mm 1 m/S 633 mmHg 90%
    04:00 -4°C° 0 mm 1 m/S 633 mmHg 90%
    05:00 -4°C° 0 mm 1 m/S 633 mmHg 90%
    06:00 -4°C° 0 mm 1 m/S 633 mmHg 90%
    07:00 -4°C° 0 mm 1 m/S 633 mmHg 90%
    08:00 -4°C° 0 mm 1 m/S 633 mmHg 90%
    09:00 -4°C° 0 mm 1 m/S 633 mmHg 89%
    10:00 -3°C° 0.1 mm 1 m/S 633 mmHg 89%
    11:00 -2°C° 0.1 mm 1 m/S 633 mmHg 89%
    12:00 -1°C° 0.1 mm 1 m/S 633 mmHg 88%
    13:00 0°C° 0 mm 1 m/S 632 mmHg 89%
    14:00 0°C° 0 mm 1 m/S 632 mmHg 89%
    15:00 0°C° 0 mm 1 m/S 631 mmHg 89%
    16:00 -1°C° 0 mm 1 m/S 631 mmHg 89%
    17:00 -2°C° 0 mm 1 m/S 631 mmHg 88%
    18:00 -4°C° 0 mm 1 m/S 631 mmHg 88%
    19:00 -4°C° 0 mm 1 m/S 631 mmHg 88%
    20:00 -4°C° 0 mm 1 m/S 631 mmHg 88%
    21:00 -4°C° 0 mm 1 m/S 631 mmHg 88%
    22:00 -4°C° 0.1 mm 1 m/S 631 mmHg 88%
    23:00 -3°C° 0.1 mm 1 m/S 631 mmHg 88%
    Mehr zeigen